owner,sensor,date,latitude,longitude,vertical_datum,wind_speed,wind_to_direction,wind_speed_of_gust,qcFlag 
COMPS,ioos:station:USF.COMPS:FHP:1,2016-06-01T00:00:00Z,28.1530,-82.8010,10.0,3.56,312.0,4.5,'1111122,1111122,1111122' 
COMPS,ioos:station:USF.COMPS:FHP:1,2016-06-01T00:06:00Z,28.1530,-82.8010,10.0,3.55,307.26,4.7,'1111122,1111122,1111122' 
COMPS,ioos:station:USF.COMPS:FHP:1,2016-06-01T00:12:00Z,28.1530,-82.8010,10.0,3.42,313.38,4.21,'1111122,1111122,1111122' 
COMPS,ioos:station:USF.COMPS:FHP:1,2016-06-01T00:18:00Z,28.1530,-82.8010,10.0,2.97,312.62,3.82,'1111122,1111122,1111122' 
COMPS,ioos:station:USF.COMPS:FHP:1,2016-06-01T00:24:00Z,28.1530,-82.8010,10.0,3.33,311.99,4.41,'1111122,1111122,1111122' 
COMPS,ioos:station:USF.COMPS:FHP:1,2016-06-01T00:30:00Z,28.1530,-82.8010,10.0,3.6,298.65,4.7,'1111122,1111122,1111122' 
COMPS,ioos:station:USF.COMPS:FHP:1,2016-06-01T00:36:00Z,28.1530,-82.8010,10.0,3.2,292.36,4.11,'1111122,1111122,1111122' 
COMPS,ioos:station:USF.COMPS:FHP:1,2016-06-01T00:42:00Z,28.1530,-82.8010,10.0,2.8,302.22,3.62,'1111122,1111122,1111122' 
COMPS,ioos:station:USF.COMPS:FHP:1,2016-06-01T00:48:00Z,28.1530,-82.8010,10.0,2.9,308.47,4.31,'1111122,1111122,1111122' 
COMPS,ioos:station:USF.COMPS:FHP:1,2016-06-01T00:54:00Z,28.1530,-82.8010,10.0,2.0,312.82,3.03,'1111122,1111122,1111122' 
COMPS,ioos:station:USF.COMPS:FHP:1,2016-06-01T01:00:00Z,28.1530,-82.8010,10.0,1.64,334.44,2.35,'1111122,1111122,1111122' 
COMPS,ioos:station:USF.COMPS:FHP:1,2016-06-01T01:06:00Z,28.1530,-82.8010,10.0,1.46,334.85,2.54,'1111122,1111122,1111122' 
COMPS,ioos:station:USF.COMPS:FHP:1,2016-06-01T01:12:00Z,28.1530,-82.8010,10.0,2.28,324.08,3.13,'1111122,1111122,1111122' 
COMPS,ioos:station:USF.COMPS:FHP:1,2016-06-01T01:18:00Z,28.1530,-82.8010,10.0,2.31,315.92,3.13,'1111122,1111122,1111122' 
COMPS,ioos:station:USF.COMPS:FHP:1,2016-06-01T01:24:00Z,28.1530,-82.8010,10.0,2.54,316.56,3.33,'1111122,1111122,1111122' 
COMPS,ioos:station:USF.COMPS:FHP:1,2016-06-01T01:30:00Z,28.1530,-82.8010,10.0,2.66,312.0,3.23,'1111122,1111122,1111122' 
COMPS,ioos:station:USF.COMPS:FHP:1,2016-06-01T01:36:00Z,28.1530,-82.8010,10.0,2.43,316.33,3.43,'1111122,1111122,1111122' 
COMPS,ioos:station:USF.COMPS:FHP:1,2016-06-01T01:42:00Z,28.1530,-82.8010,10.0,1.67,332.7,2.45,'1111122,1111122,1111122' 
COMPS,ioos:station:USF.COMPS:FHP:1,2016-06-01T01:48:00Z,28.1530,-82.8010,10.0,1.69,357.33,2.45,'1111122,1111122,1111122' 
COMPS,ioos:station:USF.COMPS:FHP:1,2016-06-01T01:54:00Z,28.1530,-82.8010,10.0,1.97,350.9,2.74,'1111122,1111122,1111122' 
COMPS,ioos:station:USF.COMPS:FHP:1,2016-06-01T02:00:00Z,28.1530,-82.8010,10.0,2.25,11.29,3.92,'1111122,1111122,1111122' 
COMPS,ioos:station:USF.COMPS:FHP:1,2016-06-01T02:06:00Z,28.1530,-82.8010,10.0,2.41,14.98,3.43,'1111122,1111122,1111122' 
COMPS,ioos:station:USF.COMPS:FHP:1,2016-06-01T02:12:00Z,28.1530,-82.8010,10.0,2.8,12.35,3.62,'1111122,1111122,1111122' 
COMPS,ioos:station:USF.COMPS:FHP:1,2016-06-01T02:18:00Z,28.1530,-82.8010,10.0,2.49,13.45,3.82,'1111122,1111122,1111122' 
COMPS,ioos:station:USF.COMPS:FHP:1,2016-06-01T02:24:00Z,28.1530,-82.8010,10.0,1.72,65.67,2.45,'1111122,1111122,1111122' 
COMPS,ioos:station:USF.COMPS:FHP:1,2016-06-01T02:30:00Z,28.1530,-82.8010,10.0,2.13,80.62,2.64,'1111122,1111122,1111122' 
COMPS,ioos:station:USF.COMPS:FHP:1,2016-06-01T02:36:00Z,28.1530,-82.8010,10.0,1.72,80.1,2.25,'1111122,1111122,1111122' 
COMPS,ioos:station:USF.COMPS:FHP:1,2016-06-01T02:42:00Z,28.1530,-82.8010,10.0,1.75,94.28,2.45,'1111122,1111122,1111122' 
COMPS,ioos:station:USF.COMPS:FHP:1,2016-06-01T02:48:00Z,28.1530,-82.8010,10.0,1.82,93.09,2.45,'1111122,1111122,1111122' 
COMPS,ioos:station:USF.COMPS:FHP:1,2016-06-01T02:54:00Z,28.1530,-82.8010,10.0,1.93,83.36,2.45,'1111122,1111122,1111122' 
COMPS,ioos:station:USF.COMPS:FHP:1,2016-06-01T03:00:00Z,28.1530,-82.8010,10.0,1.41,77.62,1.86,'1111122,1111122,1111122' 
COMPS,ioos:station:USF.COMPS:FHP:1,2016-06-01T03:06:00Z,28.1530,-82.8010,10.0,1.82,81.61,2.35,'1111122,1111122,1111122' 
COMPS,ioos:station:USF.COMPS:FHP:1,2016-06-01T03:12:00Z,28.1530,-82.8010,10.0,1.3,102.09,2.05,'1111122,1111122,1111122' 
COMPS,ioos:station:USF.COMPS:FHP:1,2016-06-01T03:18:00Z,28.1530,-82.8010,10.0,1.33,118.87,1.86,'1111122,1111122,1111122' 
COMPS,ioos:station:USF.COMPS:FHP:1,2016-06-01T03:24:00Z,28.1530,-82.8010,10.0,2.0,119.85,2.74,'1111122,1111122,1111122' 
COMPS,ioos:station:USF.COMPS:FHP:1,2016-06-01T03:30:00Z,28.1530,-82.8010,10.0,2.43,123.02,3.13,'1111122,1111122,1111122' 
COMPS,ioos:station:USF.COMPS:FHP:1,2016-06-01T03:36:00Z,28.1530,-82.8010,10.0,2.22,117.84,2.84,'1111122,1111122,1111122' 
COMPS,ioos:station:USF.COMPS:FHP:1,2016-06-01T03:42:00Z,28.1530,-82.8010,10.0,1.98,115.64,2.64,'1111122,1111122,1111122' 
COMPS,ioos:station:USF.COMPS:FHP:1,2016-06-01T03:48:00Z,28.1530,-82.8010,10.0,2.87,131.69,3.33,'1111122,1111122,1111122' 
COMPS,ioos:station:USF.COMPS:FHP:1,2016-06-01T03:54:00Z,28.1530,-82.8010,10.0,3.48,133.5,4.7,'1111122,1111122,1111122' 
COMPS,ioos:station:USF.COMPS:FHP:1,2016-06-01T04:00:00Z,28.1530,-82.8010,10.0,3.71,130.58,4.5,'1111122,1111122,1111122' 
COMPS,ioos:station:USF.COMPS:FHP:1,2016-06-01T04:06:00Z,28.1530,-82.8010,10.0,3.96,124.99,4.6,'1111122,1111122,1111122' 
COMPS,ioos:station:USF.COMPS:FHP:1,2016-06-01T04:12:00Z,28.1530,-82.8010,10.0,3.25,130.75,4.01,'1111122,1111122,1111122' 
COMPS,ioos:station:USF.COMPS:FHP:1,2016-06-01T04:18:00Z,28.1530,-82.8010,10.0,2.98,127.43,4.01,'1111122,1111122,1111122' 
COMPS,ioos:station:USF.COMPS:FHP:1,2016-06-01T04:24:00Z,28.1530,-82.8010,10.0,2.56,126.77,3.03,'1111122,1111122,1111122' 
COMPS,ioos:station:USF.COMPS:FHP:1,2016-06-01T04:30:00Z,28.1530,-82.8010,10.0,1.55,121.53,2.35,'1111122,1111122,1111122' 
COMPS,ioos:station:USF.COMPS:FHP:1,2016-06-01T04:36:00Z,28.1530,-82.8010,10.0,1.87,132.72,2.35,'1111122,1111122,1111122' 
COMPS,ioos:station:USF.COMPS:FHP:1,2016-06-01T04:42:00Z,28.1530,-82.8010,10.0,2.52,135.95,3.33,'1111122,1111122,1111122' 
COMPS,ioos:station:USF.COMPS:FHP:1,2016-06-01T04:48:00Z,28.1530,-82.8010,10.0,3.49,146.74,4.11,'1111122,1111122,1111122' 
COMPS,ioos:station:USF.COMPS:FHP:1,2016-06-01T04:54:00Z,28.1530,-82.8010,10.0,3.3,150.11,4.01,'1111122,1111122,1111122' 
COMPS,ioos:station:USF.COMPS:FHP:1,2016-06-01T05:00:00Z,28.1530,-82.8010,10.0,3.34,146.9,4.21,'1111122,1111122,1111122' 
COMPS,ioos:station:USF.COMPS:FHP:1,2016-06-01T05:06:00Z,28.1530,-82.8010,10.0,3.45,142.68,4.21,'1111122,1111122,1111122' 
COMPS,ioos:station:USF.COMPS:FHP:1,2016-06-01T05:12:00Z,28.1530,-82.8010,10.0,2.98,141.09,3.72,'1111122,1111122,1111122' 
COMPS,ioos:station:USF.COMPS:FHP:1,2016-06-01T05:18:00Z,28.1530,-82.8010,10.0,3.03,149.86,3.92,'1111122,1111122,1111122' 
COMPS,ioos:station:USF.COMPS:FHP:1,2016-06-01T05:24:00Z,28.1530,-82.8010,10.0,2.92,157.16,3.72,'1111122,1111122,1111122' 
COMPS,ioos:station:USF.COMPS:FHP:1,2016-06-01T05:30:00Z,28.1530,-82.8010,10.0,3.01,152.09,3.82,'1111122,1111122,1111122' 
COMPS,ioos:station:USF.COMPS:FHP:1,2016-06-01T05:36:00Z,28.1530,-82.8010,10.0,3.06,155.49,3.62,'1111122,1111122,1111122' 
COMPS,ioos:station:USF.COMPS:FHP:1,2016-06-01T05:42:00Z,28.1530,-82.8010,10.0,3.2,165.95,3.92,'1111122,1111122,1111122' 
COMPS,ioos:station:USF.COMPS:FHP:1,2016-06-01T05:48:00Z,28.1530,-82.8010,10.0,3.37,163.22,4.11,'1111122,1111122,1111122' 
COMPS,ioos:station:USF.COMPS:FHP:1,2016-06-01T05:54:00Z,28.1530,-82.8010,10.0,2.99,154.34,3.62,'1111122,1111122,1111122' 
COMPS,ioos:station:USF.COMPS:FHP:1,2016-06-01T06:00:00Z,28.1530,-82.8010,10.0,3.0,154.64,3.52,'1111122,1111122,1111122' 
COMPS,ioos:station:USF.COMPS:FHP:1,2016-06-01T06:06:00Z,28.1530,-82.8010,10.0,1.97,151.77,2.84,'1111122,1111122,1111122' 
COMPS,ioos:station:USF.COMPS:FHP:1,2016-06-01T06:12:00Z,28.1530,-82.8010,10.0,1.53,142.47,2.15,'1111122,1111122,1111122' 
COMPS,ioos:station:USF.COMPS:FHP:1,2016-06-01T06:18:00Z,28.1530,-82.8010,10.0,1.31,133.56,2.25,'1111122,1111122,1111122' 
COMPS,ioos:station:USF.COMPS:FHP:1,2016-06-01T06:24:00Z,28.1530,-82.8010,10.0,1.16,132.35,1.56,'1111122,1111122,1111122' 
COMPS,ioos:station:USF.COMPS:FHP:1,2016-06-01T06:30:00Z,28.1530,-82.8010,10.0,0.97,142.97,1.47,'1111122,1111122,1111122' 
COMPS,ioos:station:USF.COMPS:FHP:1,2016-06-01T06:36:00Z,28.1530,-82.8010,10.0,0.75,163.48,1.27,'1111122,1111122,1111122' 
COMPS,ioos:station:USF.COMPS:FHP:1,2016-06-01T06:42:00Z,28.1530,-82.8010,10.0,0.52,158.74,0.78,'1111122,1111122,1111122' 
COMPS,ioos:station:USF.COMPS:FHP:1,2016-06-01T06:48:00Z,28.1530,-82.8010,10.0,0.1,106.75,0.29,'1111122,1111122,1111122' 
COMPS,ioos:station:USF.COMPS:FHP:1,2016-06-01T06:54:00Z,28.1530,-82.8010,10.0,0.09,259.29,0.09,'1111122,1111122,1111122' 
COMPS,ioos:station:USF.COMPS:FHP:1,2016-06-01T07:00:00Z,28.1530,-82.8010,10.0,0.09,287.98,0.09,'1111122,1111122,1111122' 
COMPS,ioos:station:USF.COMPS:FHP:1,2016-06-01T07:06:00Z,28.1530,-82.8010,10.0,0.09,304.39,0.09,'1111122,1111122,1111122' 
COMPS,ioos:station:USF.COMPS:FHP:1,2016-06-01T07:12:00Z,28.1530,-82.8010,10.0,0.13,109.7,0.39,'1111122,1111122,1111122' 
COMPS,ioos:station:USF.COMPS:FHP:1,2016-06-01T07:18:00Z,28.1530,-82.8010,10.0,0.1,133.85,0.19,'1111122,1111122,1111122' 
COMPS,ioos:station:USF.COMPS:FHP:1,2016-06-01T07:24:00Z,28.1530,-82.8010,10.0,0.09,200.98,0.09,'1111122,1111122,1111122' 
COMPS,ioos:station:USF.COMPS:FHP:1,2016-06-01T07:30:00Z,28.1530,-82.8010,10.0,0.19,294.98,0.58,'1111122,1111122,1111122' 
COMPS,ioos:station:USF.COMPS:FHP:1,2016-06-01T07:36:00Z,28.1530,-82.8010,10.0,0.56,300.73,1.37,'1111122,1111122,1111122' 
COMPS,ioos:station:USF.COMPS:FHP:1,2016-06-01T07:42:00Z,28.1530,-82.8010,10.0,1.34,309.89,1.86,'1111122,1111122,1111122' 
COMPS,ioos:station:USF.COMPS:FHP:1,2016-06-01T07:48:00Z,28.1530,-82.8010,10.0,1.05,312.66,1.86,'1111122,1111122,1111122' 
COMPS,ioos:station:USF.COMPS:FHP:1,2016-06-01T07:54:00Z,28.1530,-82.8010,10.0,0.89,319.76,1.96,'1111122,1111122,1111122' 
COMPS,ioos:station:USF.COMPS:FHP:1,2016-06-01T08:00:00Z,28.1530,-82.8010,10.0,0.97,327.17,1.96,'1111122,1111122,1111122' 
COMPS,ioos:station:USF.COMPS:FHP:1,2016-06-01T08:06:00Z,28.1530,-82.8010,10.0,0.75,337.51,1.37,'1111122,1111122,1111122' 
COMPS,ioos:station:USF.COMPS:FHP:1,2016-06-01T08:12:00Z,28.1530,-82.8010,10.0,1.26,313.8,1.86,'1111122,1111122,1111122' 
COMPS,ioos:station:USF.COMPS:FHP:1,2016-06-01T08:18:00Z,28.1530,-82.8010,10.0,0.95,314.91,1.56,'1111122,1111122,1111122' 
COMPS,ioos:station:USF.COMPS:FHP:1,2016-06-01T08:24:00Z,28.1530,-82.8010,10.0,1.11,331.41,1.56,'1111122,1111122,1111122' 
COMPS,ioos:station:USF.COMPS:FHP:1,2016-06-01T08:30:00Z,28.1530,-82.8010,10.0,0.86,355.39,1.56,'1111122,1111122,1111122' 
COMPS,ioos:station:USF.COMPS:FHP:1,2016-06-01T08:36:00Z,28.1530,-82.8010,10.0,0.54,70.95,1.07,'1111122,1111122,1111122' 
COMPS,ioos:station:USF.COMPS:FHP:1,2016-06-01T08:42:00Z,28.1530,-82.8010,10.0,1.49,102.02,1.86,'1111122,1111122,1111122' 
COMPS,ioos:station:USF.COMPS:FHP:1,2016-06-01T08:48:00Z,28.1530,-82.8010,10.0,1.42,89.07,1.66,'1111122,1111122,1111122' 
COMPS,ioos:station:USF.COMPS:FHP:1,2016-06-01T08:54:00Z,28.1530,-82.8010,10.0,1.73,80.57,2.25,'1111122,1111122,1111122' 
COMPS,ioos:station:USF.COMPS:FHP:1,2016-06-01T09:00:00Z,28.1530,-82.8010,10.0,2.02,92.9,2.45,'1111122,1111122,1111122' 
COMPS,ioos:station:USF.COMPS:FHP:1,2016-06-01T09:06:00Z,28.1530,-82.8010,10.0,1.6,95.44,2.15,'1111122,1111122,1111122' 
COMPS,ioos:station:USF.COMPS:FHP:1,2016-06-01T09:12:00Z,28.1530,-82.8010,10.0,1.47,93.5,1.96,'1111122,1111122,1111122' 
COMPS,ioos:station:USF.COMPS:FHP:1,2016-06-01T09:18:00Z,28.1530,-82.8010,10.0,1.47,89.02,1.76,'1111122,1111122,1111122' 
COMPS,ioos:station:USF.COMPS:FHP:1,2016-06-01T09:24:00Z,28.1530,-82.8010,10.0,1.12,102.4,1.47,'1111122,1111122,1111122' 
COMPS,ioos:station:USF.COMPS:FHP:1,2016-06-01T09:30:00Z,28.1530,-82.8010,10.0,0.4,96.17,1.17,'1111122,1111122,1111122' 
COMPS,ioos:station:USF.COMPS:FHP:1,2016-06-01T09:36:00Z,28.1530,-82.8010,10.0,0.67,54.71,0.97,'1111122,1111122,1111122' 
COMPS,ioos:station:USF.COMPS:FHP:1,2016-06-01T09:42:00Z,28.1530,-82.8010,10.0,1.09,68.95,1.37,'1111122,1111122,1111122' 
COMPS,ioos:station:USF.COMPS:FHP:1,2016-06-01T09:48:00Z,28.1530,-82.8010,10.0,0.9,80.33,1.17,'1111122,1111122,1111122' 
COMPS,ioos:station:USF.COMPS:FHP:1,2016-06-01T09:54:00Z,28.1530,-82.8010,10.0,1.07,72.25,1.37,'1111122,1111122,1111122' 
COMPS,ioos:station:USF.COMPS:FHP:1,2016-06-01T10:00:00Z,28.1530,-82.8010,10.0,1.43,73.06,2.05,'1111122,1111122,1111122' 
COMPS,ioos:station:USF.COMPS:FHP:1,2016-06-01T10:06:00Z,28.1530,-82.8010,10.0,1.42,96.03,1.76,'1111122,1111122,1111122' 
COMPS,ioos:station:USF.COMPS:FHP:1,2016-06-01T10:12:00Z,28.1530,-82.8010,10.0,1.84,106.97,2.15,'1111122,1111122,1111122' 
COMPS,ioos:station:USF.COMPS:FHP:1,2016-06-01T10:18:00Z,28.1530,-82.8010,10.0,1.79,115.24,2.05,'1111122,1111122,1111122' 
COMPS,ioos:station:USF.COMPS:FHP:1,2016-06-01T10:24:00Z,28.1530,-82.8010,10.0,1.51,118.48,2.05,'1111122,1111122,1111122' 
COMPS,ioos:station:USF.COMPS:FHP:1,2016-06-01T10:30:00Z,28.1530,-82.8010,10.0,1.29,117.02,1.56,'1111122,1111122,1111122' 
COMPS,ioos:station:USF.COMPS:FHP:1,2016-06-01T10:36:00Z,28.1530,-82.8010,10.0,1.63,123.42,1.96,'1111122,1111122,1111122' 
COMPS,ioos:station:USF.COMPS:FHP:1,2016-06-01T10:42:00Z,28.1530,-82.8010,10.0,1.41,123.06,1.86,'1111122,1111122,1111122' 
COMPS,ioos:station:USF.COMPS:FHP:1,2016-06-01T10:48:00Z,28.1530,-82.8010,10.0,1.3,116.99,1.66,'1111122,1111122,1111122' 
COMPS,ioos:station:USF.COMPS:FHP:1,2016-06-01T10:54:00Z,28.1530,-82.8010,10.0,1.37,112.39,1.56,'1111122,1111122,1111122' 
COMPS,ioos:station:USF.COMPS:FHP:1,2016-06-01T11:00:00Z,28.1530,-82.8010,10.0,1.48,98.89,1.76,'1111122,1111122,1111122' 
COMPS,ioos:station:USF.COMPS:FHP:1,2016-06-01T11:06:00Z,28.1530,-82.8010,10.0,1.82,94.0,2.15,'1111122,1111122,1111122' 
COMPS,ioos:station:USF.COMPS:FHP:1,2016-06-01T11:12:00Z,28.1530,-82.8010,10.0,1.91,106.75,2.35,'1111122,1111122,1111122' 
COMPS,ioos:station:USF.COMPS:FHP:1,2016-06-01T11:18:00Z,28.1530,-82.8010,10.0,2.34,111.09,2.84,'1111122,1111122,1111122' 
COMPS,ioos:station:USF.COMPS:FHP:1,2016-06-01T11:24:00Z,28.1530,-82.8010,10.0,2.35,122.72,2.84,'1111122,1111122,1111122' 
COMPS,ioos:station:USF.COMPS:FHP:1,2016-06-01T11:30:00Z,28.1530,-82.8010,10.0,2.51,124.75,2.94,'1111122,1111122,1111122' 
COMPS,ioos:station:USF.COMPS:FHP:1,2016-06-01T11:36:00Z,28.1530,-82.8010,10.0,2.28,125.96,2.64,'1111122,1111122,1111122' 
COMPS,ioos:station:USF.COMPS:FHP:1,2016-06-01T11:42:00Z,28.1530,-82.8010,10.0,2.11,128.42,2.45,'1111122,1111122,1111122' 
COMPS,ioos:station:USF.COMPS:FHP:1,2016-06-01T11:48:00Z,28.1530,-82.8010,10.0,1.98,124.8,2.54,'1111122,1111122,1111122' 
COMPS,ioos:station:USF.COMPS:FHP:1,2016-06-01T11:54:00Z,28.1530,-82.8010,10.0,2.19,121.41,3.03,'1111122,1111122,1111122' 
COMPS,ioos:station:USF.COMPS:FHP:1,2016-06-01T12:00:00Z,28.1530,-82.8010,10.0,2.84,121.48,3.23,'1111122,1111122,1111122' 
COMPS,ioos:station:USF.COMPS:FHP:1,2016-06-01T12:06:00Z,28.1530,-82.8010,10.0,3.2,118.37,3.82,'1111122,1111122,1111122' 
COMPS,ioos:station:USF.COMPS:FHP:1,2016-06-01T12:12:00Z,28.1530,-82.8010,10.0,3.15,112.81,3.82,'1111122,1111122,1111122' 
COMPS,ioos:station:USF.COMPS:FHP:1,2016-06-01T12:18:00Z,28.1530,-82.8010,10.0,2.81,120.01,3.92,'1111122,1111122,1111122' 
COMPS,ioos:station:USF.COMPS:FHP:1,2016-06-01T12:24:00Z,28.1530,-82.8010,10.0,2.79,118.74,3.33,'1111122,1111122,1111122' 
COMPS,ioos:station:USF.COMPS:FHP:1,2016-06-01T12:30:00Z,28.1530,-82.8010,10.0,2.71,114.42,3.13,'1111122,1111122,1111122' 
COMPS,ioos:station:USF.COMPS:FHP:1,2016-06-01T12:36:00Z,28.1530,-82.8010,10.0,2.31,117.75,2.84,'1111122,1111122,1111122' 
COMPS,ioos:station:USF.COMPS:FHP:1,2016-06-01T12:42:00Z,28.1530,-82.8010,10.0,1.91,120.97,2.45,'1111122,1111122,1111122' 
COMPS,ioos:station:USF.COMPS:FHP:1,2016-06-01T12:48:00Z,28.1530,-82.8010,10.0,1.15,107.51,1.76,'1111122,1111122,1111122' 
COMPS,ioos:station:USF.COMPS:FHP:1,2016-06-01T12:54:00Z,28.1530,-82.8010,10.0,1.27,125.8,1.66,'1111122,1111122,1111122' 
COMPS,ioos:station:USF.COMPS:FHP:1,2016-06-01T13:00:00Z,28.1530,-82.8010,10.0,1.23,115.14,1.96,'1111122,1111122,1111122' 
COMPS,ioos:station:USF.COMPS:FHP:1,2016-06-01T13:06:00Z,28.1530,-82.8010,10.0,0.73,108.09,2.05,'1111122,1111122,1111122' 
COMPS,ioos:station:USF.COMPS:FHP:1,2016-06-01T13:12:00Z,28.1530,-82.8010,10.0,1.33,79.08,2.15,'1111122,1111122,1111122' 
COMPS,ioos:station:USF.COMPS:FHP:1,2016-06-01T13:18:00Z,28.1530,-82.8010,10.0,0.19,61.54,0.58,'1111122,1111122,1111122' 
COMPS,ioos:station:USF.COMPS:FHP:1,2016-06-01T13:24:00Z,28.1530,-82.8010,10.0,1.76,70.88,2.64,'1111122,1111122,1111122' 
COMPS,ioos:station:USF.COMPS:FHP:1,2016-06-01T13:30:00Z,28.1530,-82.8010,10.0,1.14,68.53,2.84,'1111122,1111122,1111122' 
COMPS,ioos:station:USF.COMPS:FHP:1,2016-06-01T13:36:00Z,28.1530,-82.8010,10.0,0.2,357.91,0.68,'1111122,1111122,1111122' 
COMPS,ioos:station:USF.COMPS:FHP:1,2016-06-01T13:42:00Z,28.1530,-82.8010,10.0,0.46,336.64,1.27,'1111122,1111122,1111122' 
COMPS,ioos:station:USF.COMPS:FHP:1,2016-06-01T13:48:00Z,28.1530,-82.8010,10.0,1.5,16.7,3.13,'1111122,1111122,1111122' 
COMPS,ioos:station:USF.COMPS:FHP:1,2016-06-01T13:54:00Z,28.1530,-82.8010,10.0,1.74,7.84,2.74,'1111122,1111122,1111122' 
COMPS,ioos:station:USF.COMPS:FHP:1,2016-06-01T14:00:00Z,28.1530,-82.8010,10.0,2.39,356.99,3.62,'1111122,1111122,1111122' 
COMPS,ioos:station:USF.COMPS:FHP:1,2016-06-01T14:06:00Z,28.1530,-82.8010,10.0,2.86,10.54,3.82,'1111122,1111122,1111122' 
COMPS,ioos:station:USF.COMPS:FHP:1,2016-06-01T14:12:00Z,28.1530,-82.8010,10.0,2.49,9.85,3.82,'1111122,1111122,1111122' 
COMPS,ioos:station:USF.COMPS:FHP:1,2016-06-01T14:18:00Z,28.1530,-82.8010,10.0,2.95,6.79,3.43,'1111122,1111122,1111122' 
COMPS,ioos:station:USF.COMPS:FHP:1,2016-06-01T14:24:00Z,28.1530,-82.8010,10.0,2.97,0.0,3.82,'1111122,1114422,1111122' 
COMPS,ioos:station:USF.COMPS:FHP:1,2016-06-01T14:30:00Z,28.1530,-82.8010,10.0,2.72,356.94,3.33,'1111122,1111122,1111122' 
COMPS,ioos:station:USF.COMPS:FHP:1,2016-06-01T14:36:00Z,28.1530,-82.8010,10.0,3.13,0.38,4.21,'1111122,1111122,1111122' 
COMPS,ioos:station:USF.COMPS:FHP:1,2016-06-01T14:42:00Z,28.1530,-82.8010,10.0,3.22,6.61,3.92,'1111122,1111122,1111122' 
COMPS,ioos:station:USF.COMPS:FHP:1,2016-06-01T14:48:00Z,28.1530,-82.8010,10.0,3.11,3.93,4.21,'1111122,1111122,1111122' 
COMPS,ioos:station:USF.COMPS:FHP:1,2016-06-01T14:54:00Z,28.1530,-82.8010,10.0,3.26,7.8,4.21,'1111122,1111122,1111122' 
COMPS,ioos:station:USF.COMPS:FHP:1,2016-06-01T15:00:00Z,28.1530,-82.8010,10.0,3.31,0.27,4.01,'1111122,1111122,1111122' 
COMPS,ioos:station:USF.COMPS:FHP:1,2016-06-01T15:06:00Z,28.1530,-82.8010,10.0,3.0,359.71,3.62,'1111122,1111122,1111122' 
COMPS,ioos:station:USF.COMPS:FHP:1,2016-06-01T15:12:00Z,28.1530,-82.8010,10.0,2.81,354.98,3.52,'1111122,1111122,1111122' 
COMPS,ioos:station:USF.COMPS:FHP:1,2016-06-01T15:18:00Z,28.1530,-82.8010,10.0,3.25,346.73,4.11,'1111122,1111122,1111122' 
COMPS,ioos:station:USF.COMPS:FHP:1,2016-06-01T15:24:00Z,28.1530,-82.8010,10.0,3.84,343.09,4.41,'1111122,1111122,1111122' 
COMPS,ioos:station:USF.COMPS:FHP:1,2016-06-01T15:30:00Z,28.1530,-82.8010,10.0,4.26,347.75,5.19,'1111122,1111122,1111122' 
COMPS,ioos:station:USF.COMPS:FHP:1,2016-06-01T15:36:00Z,28.1530,-82.8010,10.0,3.67,344.66,4.31,'1111122,1111122,1111122' 
COMPS,ioos:station:USF.COMPS:FHP:1,2016-06-01T15:42:00Z,28.1530,-82.8010,10.0,3.83,348.88,4.8,'1111122,1111122,1111122' 
COMPS,ioos:station:USF.COMPS:FHP:1,2016-06-01T15:48:00Z,28.1530,-82.8010,10.0,3.11,350.36,3.72,'1111122,1111122,1111122' 
COMPS,ioos:station:USF.COMPS:FHP:1,2016-06-01T15:54:00Z,28.1530,-82.8010,10.0,3.36,349.1,4.11,'1111122,1111122,1111122' 
COMPS,ioos:station:USF.COMPS:FHP:1,2016-06-01T16:00:00Z,28.1530,-82.8010,10.0,3.33,336.51,4.21,'1111122,1111122,1111122' 
COMPS,ioos:station:USF.COMPS:FHP:1,2016-06-01T16:06:00Z,28.1530,-82.8010,10.0,3.01,341.17,3.62,'1111122,1111122,1111122' 
COMPS,ioos:station:USF.COMPS:FHP:1,2016-06-01T16:12:00Z,28.1530,-82.8010,10.0,2.89,336.64,3.72,'1111122,1111122,1111122' 
COMPS,ioos:station:USF.COMPS:FHP:1,2016-06-01T16:18:00Z,28.1530,-82.8010,10.0,2.8,341.01,3.43,'1111122,1111122,1111122' 
COMPS,ioos:station:USF.COMPS:FHP:1,2016-06-01T16:24:00Z,28.1530,-82.8010,10.0,2.3,342.63,3.13,'1111122,1111122,1111122' 
COMPS,ioos:station:USF.COMPS:FHP:1,2016-06-01T16:30:00Z,28.1530,-82.8010,10.0,2.8,341.52,3.72,'1111122,1111122,1111122' 
COMPS,ioos:station:USF.COMPS:FHP:1,2016-06-01T16:36:00Z,28.1530,-82.8010,10.0,3.08,326.2,3.72,'1111122,1111122,1111122' 
COMPS,ioos:station:USF.COMPS:FHP:1,2016-06-01T16:42:00Z,28.1530,-82.8010,10.0,2.95,323.27,3.72,'1111122,1111122,1111122' 
COMPS,ioos:station:USF.COMPS:FHP:1,2016-06-01T16:48:00Z,28.1530,-82.8010,10.0,3.04,323.53,3.82,'1111122,1111122,1111122' 
COMPS,ioos:station:USF.COMPS:FHP:1,2016-06-01T16:54:00Z,28.1530,-82.8010,10.0,2.94,332.38,3.62,'1111122,1111122,1111122' 
COMPS,ioos:station:USF.COMPS:FHP:1,2016-06-01T17:00:00Z,28.1530,-82.8010,10.0,3.3,336.17,4.21,'1111122,1111122,1111122' 
COMPS,ioos:station:USF.COMPS:FHP:1,2016-06-01T17:06:00Z,28.1530,-82.8010,10.0,3.25,335.75,4.21,'1111122,1111122,1111122' 
COMPS,ioos:station:USF.COMPS:FHP:1,2016-06-01T17:12:00Z,28.1530,-82.8010,10.0,3.72,347.0,4.41,'1111122,1111122,1111122' 
COMPS,ioos:station:USF.COMPS:FHP:1,2016-06-01T17:18:00Z,28.1530,-82.8010,10.0,4.26,343.17,4.99,'1111122,1111122,1111122' 
COMPS,ioos:station:USF.COMPS:FHP:1,2016-06-01T17:24:00Z,28.1530,-82.8010,10.0,4.11,344.88,4.7,'1111122,1111122,1111122' 
COMPS,ioos:station:USF.COMPS:FHP:1,2016-06-01T17:30:00Z,28.1530,-82.8010,10.0,3.96,344.55,4.8,'1111122,1111122,1111122' 
COMPS,ioos:station:USF.COMPS:FHP:1,2016-06-01T17:36:00Z,28.1530,-82.8010,10.0,3.93,349.91,4.9,'1111122,1111122,1111122' 
COMPS,ioos:station:USF.COMPS:FHP:1,2016-06-01T17:42:00Z,28.1530,-82.8010,10.0,3.84,358.01,5.09,'1111122,1111122,1111122' 
COMPS,ioos:station:USF.COMPS:FHP:1,2016-06-01T17:48:00Z,28.1530,-82.8010,10.0,3.89,351.13,4.9,'1111122,1111122,1111122' 
COMPS,ioos:station:USF.COMPS:FHP:1,2016-06-01T17:54:00Z,28.1530,-82.8010,10.0,4.29,351.78,4.8,'1111122,1111122,1111122' 
COMPS,ioos:station:USF.COMPS:FHP:1,2016-06-01T18:00:00Z,28.1530,-82.8010,10.0,4.33,350.99,4.8,'1111122,1111122,1111122' 
COMPS,ioos:station:USF.COMPS:FHP:1,2016-06-01T18:06:00Z,28.1530,-82.8010,10.0,4.99,354.18,5.97,'1111122,1111122,1111122' 
COMPS,ioos:station:USF.COMPS:FHP:1,2016-06-01T18:12:00Z,28.1530,-82.8010,10.0,5.46,349.84,6.37,'1111122,1111122,1111122' 
COMPS,ioos:station:USF.COMPS:FHP:1,2016-06-01T18:18:00Z,28.1530,-82.8010,10.0,5.85,349.21,6.66,'1111122,1111122,1111122' 
COMPS,ioos:station:USF.COMPS:FHP:1,2016-06-01T18:24:00Z,28.1530,-82.8010,10.0,5.6,350.72,6.37,'1111122,1111122,1111122' 
COMPS,ioos:station:USF.COMPS:FHP:1,2016-06-01T18:30:00Z,28.1530,-82.8010,10.0,5.9,356.4,6.76,'1111122,1111122,1111122' 
COMPS,ioos:station:USF.COMPS:FHP:1,2016-06-01T18:36:00Z,28.1530,-82.8010,10.0,6.27,356.98,7.25,'1111122,1111122,1111122' 
COMPS,ioos:station:USF.COMPS:FHP:1,2016-06-01T18:42:00Z,28.1530,-82.8010,10.0,5.88,348.85,6.66,'1111122,1111122,1111122' 
COMPS,ioos:station:USF.COMPS:FHP:1,2016-06-01T18:48:00Z,28.1530,-82.8010,10.0,5.65,353.99,6.46,'1111122,1111122,1111122' 
COMPS,ioos:station:USF.COMPS:FHP:1,2016-06-01T18:54:00Z,28.1530,-82.8010,10.0,5.52,345.22,6.56,'1111122,1111122,1111122' 
COMPS,ioos:station:USF.COMPS:FHP:1,2016-06-01T19:00:00Z,28.1530,-82.8010,10.0,5.86,348.43,6.85,'1111122,1111122,1111122' 
COMPS,ioos:station:USF.COMPS:FHP:1,2016-06-01T19:06:00Z,28.1530,-82.8010,10.0,5.77,350.16,6.56,'1111122,1111122,1111122' 
COMPS,ioos:station:USF.COMPS:FHP:1,2016-06-01T19:12:00Z,28.1530,-82.8010,10.0,5.3,346.28,5.97,'1111122,1111122,1111122' 
COMPS,ioos:station:USF.COMPS:FHP:1,2016-06-01T19:18:00Z,28.1530,-82.8010,10.0,5.38,352.1,6.27,'1111122,1111122,1111122' 
COMPS,ioos:station:USF.COMPS:FHP:1,2016-06-01T19:24:00Z,28.1530,-82.8010,10.0,4.9,356.5,6.07,'1111122,1111122,1111122' 
COMPS,ioos:station:USF.COMPS:FHP:1,2016-06-01T19:30:00Z,28.1530,-82.8010,10.0,4.88,350.85,6.07,'1111122,1111122,1111122' 